sat.trackr.live / text

‹ back to catalog

STARLINK-5805

NORAD 56912 · 2023-083AN

PAYLOAD ACTIVE UNKNOWN

§ Identity

Operator
Country
US
Launch date
2023-06-12
Launch site
AFETR
Launch vehicle
Mass (kg)
RCS (m²)

Purposes: comms

External: N2YO · Heavens-Above · Gunter

§ Orbital elements

Epoch: 2026-05-24T23:27:18.810720Z

Period
94.27 min
Inclination
43.0045°
Eccentricity
0.0001370
Mean motion
15.27574989 rev/d
Perigee alt
482.1 km
Apogee alt
484.0 km
Semi-major
6,861.2 km
B*
-2.6024e-5
RAAN
359.9959°
Arg perigee
269.7895°
Mean anomaly
90.2800°
Rev number
16,346

§ Raw data

STARLINK-58051 56912U 23083AN  26144.97730105 -.00000978  00000+0 -26024-4 0  99912 56912  43.0045 359.9959 0001370 269.7895  90.2800 15.27574989163463

JSON: /api/v1/satellites/56912 · /tle

For live sub-satellite position, see the globe view (requires WebGL).

§ Visibility from observer

Set your observer location to see the next 7 days of passes ≥ 10°. The values pass through the URL so the page stays shareable.

No JS? Fill the form by hand. The geolocation button needs JavaScript.